Weather History for Hyannis, MA

Change the Weather History Date:

Saturday, January 4, 2014

  Actual Average Record
Temperature  
Mean Temperature 18 °F -  
Max Temperature 37 °F 38 °F 57 °F (1998)
Min Temperature -2 °F 22 °F -2 °F (2014)
Degree Days  
Heating Degree Days 48    
Moisture  
Dew Point 10 °F    
Average Humidity 68    
Maximum Humidity 79    
Minimum Humidity 55    
Precipitation  
Precipitation 0.00 in - - ()
Sea Level Pressure  
Sea Level Pressure 30.39 in    
Wind  
Wind Speed 9 mph (SW)    
Max Wind Speed 21 mph    
Max Gust Speed 26 mph    
Visibility 10 miles    
Events Snow    
Averages and records for this station are not official NWS values.
T = Trace of Precipitation, MM = Missing Value Source: NWS Daily Summary

Daily Weather History Graph

Daily Weather History Graph

Search for Another Location

Airport:

Trip Planner

Search our weather history database for the weather conditions in past years. The results will help you decide how hot, cold, wet, or windy it might be!

Date:

Astronomy

Jan. 04, 2014 Rise Set
Actual Time 7:08 AM EST 4:24 PM EST
Civil Twilight 6:37 AM EST 4:55 PM EST
Nautical Twilight 6:02 AM EST 5:30 PM EST
Astronomical Twilight 5:28 AM EST 6:03 PM EST
Moon 9:08 AM EST (1/4) 8:43 PM EST (1/4)
Length of Visible Light 10h 18m
Length of Day
9h 15m
Waxing Crescent, 15% of the Moon is Illuminated
Jan 4
Waxing Crescent
Jan 7
First Quarter
Jan 15
Full
Jan 24
Last Quarter
Jan 30
New

Hourly Weather History & Observations

Time (EST) Temp. Windchill Dew Point Humidity Pressure Visibility Wind Dir Wind Speed Gust Speed Precip Events Conditions
12:36 AM 3.2 °F -10.3 °F -9.4 °F 56% 30.38 in 9.0 mi WNW 8.1 mph - 0.00 in Snow Light Snow
12:56 AM 3.9 °F -8.2 °F -9.0 °F 55% 30.39 in 9.0 mi WNW 6.9 mph - 0.00 in Snow Light Snow
1:56 AM 3.0 °F -6.4 °F -7.1 °F 63% 30.42 in 9.0 mi West 4.6 mph - 0.00 in Snow Light Snow
2:56 AM 3.0 °F -6.4 °F -7.1 °F 63% 30.43 in 9.0 mi WNW 4.6 mph - 0.00 in Snow Light Snow
3:56 AM 1.9 °F -5.6 °F -7.1 °F 66% 30.43 in 9.0 mi WNW 3.5 mph - 0.00 in Snow Light Snow
4:56 AM -0.0 °F - -9.0 °F 66% 30.44 in 9.0 mi Calm Calm - 0.00 in Snow Light Snow
5:56 AM 1.0 °F -6.7 °F -8.0 °F 66% 30.46 in 10.0 mi West 3.5 mph - 0.00 in Snow Light Snow
6:56 AM -2.9 °F - -8.0 °F 79% 30.48 in 10.0 mi Calm Calm - 0.00 in Snow Light Snow
7:09 AM -2.2 °F -12.5 °F -7.6 °F 78% 30.48 in 9.0 mi WSW 4.6 mph - 0.00 in   Clear
7:56 AM -0.9 °F - -7.1 °F 75% 30.50 in 9.0 mi Calm Calm - 0.00 in   Clear
8:56 AM 9.0 °F -0.9 °F -0.0 °F 67% 30.52 in 9.0 mi SW 5.8 mph - N/A   Clear
9:56 AM 16.0 °F 5.3 °F 9.0 °F 74% 30.51 in 9.0 mi SW 8.1 mph - N/A   Clear
10:56 AM 19.9 °F 11.1 °F 12.0 °F 71% 30.48 in 9.0 mi SSW 6.9 mph - N/A   Clear
11:56 AM 24.1 °F 11.0 °F 15.1 °F 69% 30.44 in 9.0 mi SW 16.1 mph - N/A   Clear
12:56 PM 26.1 °F 13.6 °F 12.0 °F 55% 30.42 in 10.0 mi SW 16.1 mph - N/A   Clear
1:56 PM 27.0 °F 13.2 °F 15.1 °F 61% 30.39 in 10.0 mi SW 20.7 mph 24.2 mph N/A   Clear
2:56 PM 28.9 °F 19.2 °F 18.0 °F 64% 30.38 in 10.0 mi SSW 11.5 mph 21.9 mph N/A   Clear
3:56 PM 30.9 °F 20.2 °F 21.9 °F 69% 30.36 in 10.0 mi SSW 15.0 mph 19.6 mph N/A   Mostly Cloudy
3:59 PM 30.2 °F 19.8 °F 21.2 °F 69% 30.35 in 10.0 mi SSW 13.8 mph 19.6 mph N/A   Overcast
4:56 PM 32.0 °F 21.6 °F 24.1 °F 73% 30.33 in 10.0 mi SSW 15.0 mph 21.9 mph N/A   Mostly Cloudy
5:18 PM 33.8 °F 24.8 °F 24.8 °F 70% 30.32 in 10.0 mi SSW 12.7 mph - N/A   Scattered Clouds
5:56 PM 34.0 °F 23.8 °F 25.0 °F 70% 30.32 in 10.0 mi SSW 16.1 mph 23.0 mph N/A   Clear
6:56 PM 35.1 °F 25.5 °F 26.1 °F 70% 30.32 in 10.0 mi SSW 15.0 mph - N/A   Clear
7:56 PM 36.0 °F 26.3 °F 27.0 °F 70% 30.31 in 10.0 mi SSW 16.1 mph 26.5 mph N/A   Clear
8:56 PM 36.0 °F 25.3 °F 28.0 °F 73% 30.29 in 10.0 mi SW 19.6 mph - N/A   Clear
9:56 PM 37.0 °F 27.0 °F 28.9 °F 73% 30.28 in 10.0 mi SW 18.4 mph 26.5 mph N/A   Clear
10:56 PM 37.0 °F 27.0 °F 28.9 °F 73% 30.27 in 10.0 mi SW 18.4 mph 26.5 mph N/A   Clear
11:56 PM 37.9 °F 28.9 °F 28.9 °F 70% 30.27 in 10.0 mi SW 16.1 mph 25.3 mph N/A   Clear